Theta_e
348 348 349 349 349 348 348 348 348 348 348 348 347 347 348 350 350 349 350 350 351 351 351 351 351 351 352 353 353 353 354 355 356 356 355 354 354 354 353 352 351 351 351 348 347 344 343 342 340 338 337 336 336 336 336 337 336 335 334 331 329 329 328 326 324 325 326 328 329 330 331 330 329 332 333 334 335 337 341 338 336 336 336 333 331
347 348 348 348 348 348 348 348 348 348 348 348 348 348 348 349 350 351 349 350 352 352 352 352 352 352 351 351 352 353 354 354 355 355 354 354 353 354 353 352 351 351 350 349 347 346 344 342 342 341 337 336 336 335 336 336 337 335 334 334 331 330 330 328 326 325 326 325 328 331 332 331 330 330 332 332 332 335 336 338 338 337 336 335 333
348 348 348 348 348 348 348 348 348 348 347 347 348 348 349 349 350 351 351 350 352 352 353 353 352 352 351 351 352 352 353 354 355 355 355 354 353 353 353 352 351 350 349 349 349 347 344 343 343 343 341 337 336 336 336 335 336 337 336 335 334 333 331 330 327 326 325 327 327 329 331 331 330 331 332 333 335 334 334 335 337 338 338 337 336
348 348 348 348 348 348 347 348 348 348 347 348 347 348 349 349 351 351 352 352 351 352 353 353 353 352 352 351 351 352 353 353 354 355 355 354 353 353 353 353 352 352 351 350 349 348 346 344 344 344 342 339 338 337 336 335 335 336 336 336 335 334 333 332 331 328 327 326 327 329 330 330 332 332 332 334 333 333 334 335 336 337 337 338 337
348 348 348 348 348 347 347 348 347 347 347 348 348 348 349 349 350 351 352 352 352 352 353 353 353 353 352 352 351 351 352 353 353 354 355 355 354 354 353 353 352 352 352 351 352 349 347 346 346 344 343 341 340 338 337 335 335 335 335 336 336 335 335 334 333 331 329 327 329 328 330 331 332 332 332 332 331 332 332 333 334 335 336 337 338
348 348 348 348 348 347 347 347 347 347 348 348 348 349 349 349 349 350 351 351 352 353 352 353 353 352 353 353 353 352 352 353 353 354 354 355 354 354 354 353 353 353 352 352 351 350 348 347 347 345 343 342 342 341 339 337 336 335 334 335 336 336 335 334 334 333 331 331 330 330 327 330 330 331 332 332 331 330 330 332 333 335 335 335 336
349 348 348 348 348 348 348 348 348 348 348 349 349 349 349 349 349 349 351 351 352 352 352 352 353 353 353 353 353 353 353 353 353 353 354 354 354 354 353 353 353 353 353 353 352 351 350 349 348 346 345 344 343 343 342 340 338 336 336 335 335 335 335 334 334 333 332 332 332 331 331 330 330 331 331 333 332 332 331 329 329 333 334 334 334
349 349 349 348 348 349 349 349 349 349 349 349 349 349 349 349 349 349 350 349 350 351 352 352 353 353 353 353 353 353 353 353 353 353 353 354 354 354 354 353 353 353 353 353 353 352 352 351 349 348 347 346 344 344 343 341 340 338 338 336 335 334 334 334 333 333 332 332 332 333 332 331 328 331 331 329 329 331 331 330 329 329 331 333 334
350 350 349 349 349 350 350 351 351 350 350 349 349 349 349 349 349 349 349 349 350 350 352 353 353 352 353 353 353 353 352 352 353 353 353 353 354 353 354 353 353 352 352 353 353 353 353 352 351 350 349 347 341 340 340 339 342 339 339 337 336 334 334 333 333 332 332 332 332 333 332 331 331 331 330 329 330 332 329 331 330 331 330 330 333
350 350 350 350 350 351 351 351 351 351 350 350 349 349 349 349 349 349 349 349 349 349 349 351 352 352 352 352 353 353 353 353 346 336 340 353 353 354 354 354 354 353 352 352 352 353 354 354 354 349 341 339 337 335 333 333 334 340 342 339 338 336 334 333 332 332 332 331 332 332 331 331 332 332 332 333 333 333 330 330 329 331 326 330 332
351 351 351 351 352 352 351 351 352 351 351 351 350 350 349 349 349 349 349 349 349 349 349 348 349 351 352 352 351 352 353 353 337 331 332 335 350 353 353 353 354 354 353 352 351 352 353 354 354 352 345 339 340 333 332 331 331 330 333 336 337 339 336 334 333 333 332 332 332 332 331 331 332 333 333 333 333 333 333 332 331 330 328 327 327
351 351 352 352 353 352 352 352 351 351 351 351 351 350 350 349 349 349 349 348 349 349 348 348 348 349 350 351 352 352 352 339 333 330 330 330 335 353 354 353 353 353 354 354 353 353 352 352 353 354 354 352 350 347 337 331 329 329 329 330 331 332 334 338 336 334 333 332 332 332 332 331 332 333 333 333 333 332 332 332 330 330 329 328 328
351 352 352 353 353 353 353 352 352 352 351 351 351 351 350 349 349 348 348 349 349 348 348 348 348 348 348 348 350 351 352 337 331 328 328 328 328 338 353 354 353 353 353 354 354 353 353 352 352 353 354 345 348 350 349 346 331 326 327 328 328 328 328 329 331 339 338 335 334 333 333 334 332 333 335 334 333 331 330 331 331 331 331 330 330
352 352 353 353 353 353 353 353 352 352 353 352 352 351 350 349 349 349 349 349 348 348 348 348 348 348 348 348 348 350 351 338 329 326 325 325 326 331 350 353 353 353 353 353 354 353 353 352 351 351 352 353 352 351 350 349 349 345 338 334 335 335 328 326 325 326 332 338 337 335 337 337 335 336 337 336 334 333 332 331 332 331 331 331 334
352 352 353 353 354 354 353 353 353 353 353 353 352 351 350 350 349 349 349 348 348 347 348 347 348 348 348 349 348 348 350 335 327 323 322 322 324 326 346 351 353 353 353 353 353 353 353 353 353 352 352 352 352 351 351 350 349 348 347 345 341 340 340 339 337 335 335 336 337 339 340 340 339 339 339 338 337 337 336 335 334 334 334 335 334
351 353 353 354 354 355 354 353 353 353 353 353 352 351 351 350 350 350 349 349 349 349 348 349 348 348 349 349 348 348 350 332 326 323 321 321 323 335 343 348 350 351 352 353 353 354 354 354 353 352 352 352 344 333 339 350 350 348 347 347 347 346 344 336 333 335 339 340 340 340 341 342 337 343 343 340 338 338 339 339 337 334 331 331 330
352 353 354 355 355 356 355 355 354 354 353 353 352 352 351 351 351 351 349 349 348 347 347 347 348 348 349 349 348 348 349 336 323 320 319 319 321 338 343 346 348 350 351 352 353 353 353 354 353 353 353 352 342 332 329 333 348 348 348 347 348 347 347 348 332 327 328 326 326 328 329 329 329 327 327 327 334 337 337 334 333 334 330 329 330
352 354 354 356 356 357 357 356 355 355 354 353 352 353 353 353 352 352 350 349 348 348 348 348 348 348 348 348 349 348 348 339 322 318 317 317 325 340 343 345 347 348 350 352 353 353 354 347 354 354 353 353 337 329 329 332 343 347 348 347 347 346 347 349 347 339 326 324 325 326 326 327 327 327 327 327 325 326 336 333 336 335 332 332 330
350 352 355 357 358 358 358 357 356 355 355 354 354 353 353 353 353 353 352 351 350 350 349 348 348 348 348 348 342 346 349 341 321 319 316 315 325 342 345 345 346 347 348 350 351 352 353 350 345 343 348 346 333 329 326 331 345 347 347 347 346 346 348 349 348 348 344 339 337 336 336 334 335 334 336 327 327 337 334 336 338 336 333 333 332
350 351 353 356 358 358 358 358 357 356 355 355 355 354 354 354 353 352 352 352 350 350 349 349 347 347 348 349 349 348 348 349 339 317 315 314 318 341 346 346 346 347 348 349 349 350 352 352 348 330 326 327 326 324 323 322 342 349 349 348 347 346 350 351 350 347 345 346 346 345 342 342 342 340 339 339 339 339 336 336 336 337 335 335 334
350 351 351 353 355 357 358 358 357 357 357 356 356 355 355 353 353 352 351 352 351 350 349 348 348 348 348 349 349 350 350 350 346 318 314 313 314 325 345 347 348 348 348 347 349 349 350 351 352 338 326 322 320 319 319 318 322 344 349 349 349 349 343 350 344 342 342 343 343 344 345 345 345 344 342 341 341 340 340 336 337 338 337 336 335
344 348 349 351 353 355 356 358 358 358 358 357 355 354 355 354 353 352 352 351 349 349 349 347 347 347 347 348 348 349 351 342 351 322 316 313 313 315 340 348 348 349 349 349 349 349 350 351 351 341 328 323 320 317 315 315 316 329 338 327 328 327 338 343 342 338 338 339 340 341 342 342 343 344 344 343 343 343 342 342 339 338 339 339 338
343 344 348 350 352 353 355 356 356 358 358 357 355 354 354 354 353 352 351 350 349 348 348 347 347 346 346 346 347 348 349 348 334 338 316 313 312 312 320 336 333 347 350 349 349 350 352 352 350 337 325 318 314 313 313 312 313 323 317 316 316 317 323 333 340 337 337 337 337 337 338 339 339 339 340 342 343 344 344 344 343 342 340 340 341
342 341 344 348 351 352 353 355 356 357 358 357 356 355 354 354 353 352 351 350 349 348 347 348 346 345 345 345 346 347 348 350 337 328 328 313 313 312 313 318 326 343 350 351 352 352 352 353 342 320 315 311 311 311 311 313 323 315 312 314 315 317 327 331 335 336 335 333 332 333 334 336 336 337 337 339 341 343 344 345 345 344 343 342 341
344 340 341 345 349 351 353 354 355 356 357 357 355 354 354 354 352 352 351 350 349 348 348 348 347 346 346 345 345 346 349 349 350 334 323 318 313 312 313 314 316 320 341 349 351 348 316 309 311 314 314 314 314 316 318 316 310 308 309 311 318 326 330 331 335 335 333 332 331 332 333 334 336 337 338 338 339 340 340 342 344 344 345 344 343
354 349 341 342 345 350 352 353 354 355 356 357 356 356 355 354 353 352 352 351 350 349 349 348 347 347 347 347 346 347 349 350 351 347 332 326 319 313 313 314 316 317 324 334 321 314 314 316 317 321 324 326 334 336 337 336 326 322 318 319 328 331 332 333 334 333 332 332 332 332 334 335 336 337 337 337 335 335 336 337 339 340 342 341 340
355 354 349 343 342 347 351 352 353 355 355 356 356 356 355 354 353 352 353 352 351 351 350 349 348 348 348 348 348 347 348 350 349 338 336 335 331 327 320 320 317 317 323 327 325 331 332 332 331 323 323 322 323 322 323 327 330 332 332 332 332 333 333 334 335 334 332 332 332 332 333 334 335 334 333 333 333 334 335 334 334 335 337 339 338
354 352 352 347 345 347 350 359 357 354 355 356 356 355 355 355 354 353 353 353 352 352 352 351 349 350 349 350 349 348 347 347 342 340 334 335 335 333 330 329 327 325 326 329 331 334 335 332 331 334 334 334 333 333 334 334 332 330 331 331 330 330 332 332 334 334 334 335 334 335 334 335 334 334 335 334 334 334 335 334 334 334 335 336 334
352 349 348 347 346 348 351 355 355 352 335 319 312 311 319 339 352 353 342 343 356 356 354 353 353 354 353 351 350 348 348 343 343 331 338 326 333 334 331 331 331 330 329 323 333 333 333 332 332 332 331 330 329 328 326 325 324 324 325 324 324 323 323 321 321 323 327 329 329 330 329 330 330 331 331 332 332 333 334 334 335 334 335 335 332
348 348 347 346 347 349 353 354 351 343 335 328 321 316 308 299 302 323 332 319 313 312 325 354 356 355 354 343 335 352 351 350 315 306 307 310 313 316 318 317 317 323 315 317 328 330 328 326 325 324 324 324 323 322 322 321 322 322 322 319 321 321 321 322 322 323 324 324 324 324 324 324 325 326 327 327 328 328 328 326 328 330 329 330 330
346 347 347 346 345 353 349 346 341 336 334 332 330 326 323 317 300 297 303 306 303 308 311 309 313 331 348 336 312 303 308 302 300 298 299 300 299 299 302 303 304 304 308 324 324 323 322 322 321 322 322 322 321 320 320 320 321 321 321 321 321 321 321 322 322 321 322 322 322 323 323 323 323 324 324 324 325 327 328 328 329 329 329 329 328
342 344 345 346 344 344 343 341 337 335 332 332 332 332 330 327 323 305 298 299 300 295 295 302 311 319 323 321 315 312 302 298 297 297 298 298 297 297 299 301 301 303 306 312 322 321 321 321 320 319 319 320 320 320 321 321 321 322 322 321 320 318 319 320 320 322 322 321 321 320 321 321 321 321 322 322 322 323 324 324 325 326 327 328 328
340 342 346 347 346 345 340 338 336 335 334 333 333 334 334 333 328 322 315 302 299 297 298 297 297 300 303 304 307 304 301 297 296 296 296 297 297 297 296 297 298 299 308 321 323 321 321 321 320 319 319 320 320 321 321 322 321 322 322 320 319 318 318 318 318 320 320 320 320 321 320 320 319 319 318 319 320 320 322 323 325 326 327 327 327
339 339 343 346 344 341 339 338 336 335 335 336 337 337 337 335 330 326 324 324 322 313 305 300 298 299 296 297 297 297 296 297 297 298 298 299 300 302 303 306 300 304 313 324 324 321 321 320 320 320 320 320 321 321 321 321 321 320 319 317 316 316 316 317 316 317 317 317 318 317 317 317 317 317 317 318 319 319 320 321 324 325 326 327 327
339 345 351 351 339 342 340 339 338 336 336 336 336 336 333 331 329 330 330 328 324 321 320 317 306 300 305 301 296 297 297 297 298 298 300 302 304 305 310 325 325 323 322 322 322 321 320 320 319 320 320 320 320 321 320 320 320 318 316 315 314 314 315 315 315 315 316 316 316 315 315 315 316 316 316 317 317 317 316 317 317 319 320 320 318
339 338 338 341 340 344 341 338 336 336 336 336 335 333 331 331 331 329 325 325 323 321 319 316 312 306 300 297 296 297 297 298 298 299 298 299 302 310 323 322 322 321 320 319 320 320 320 319 320 318 317 318 320 320 321 320 319 316 313 313 314 312 313 314 314 314 315 315 314 315 313 314 315 315 316 315 315 316 316 316 315 315 316 316 316
335 336 338 339 340 342 340 337 333 332 331 329 331 331 330 329 329 328 326 325 324 322 319 318 320 320 316 315 305 298 297 297 296 296 298 302 307 320 323 322 320 320 320 319 320 320 320 319 318 318 318 318 319 320 320 318 315 312 314 312 312 311 313 312 314 314 314 314 314 314 313 313 314 314 314 313 314 314 315 315 314 313 313 313 313
333 332 336 338 340 341 337 333 330 329 330 330 329 329 329 329 329 328 327 325 325 324 324 324 324 323 320 318 322 316 307 302 306 309 310 311 318 323 323 323 321 320 319 318 319 320 320 319 320 320 319 318 318 318 318 317 314 311 311 311 311 312 313 314 314 313 314 313 313 313 313 313 313 313 312 312 312 312 313 313 313 313 313 313 313
332 328 330 334 336 337 334 332 331 330 330 329 329 330 329 329 329 329 328 328 328 327 327 326 326 324 323 323 321 321 323 325 323 321 321 321 320 320 320 319 319 319 319 319 320 320 319 320 319 318 318 318 318 317 316 315 312 310 310 311 310 310 312 312 312 312 312 312 312 312 313 313 313 313 312 312 312 312 313 313 313 313 312 312 312
331 331 331 331 333 332 334 335 332 330 330 329 329 330 330 330 329 329 329 328 328 327 327 326 325 325 325 325 324 325 325 323 322 321 320 319 319 316 316 318 319 320 319 318 318 318 318 317 316 318 317 317 317 317 316 315 312 311 310 311 310 311 310 309 309 310 311 311 311 312 312 313 313 313 312 313 312 312 312 312 312 313 313 313 313
330 333 337 330 331 332 334 332 331 331 331 331 331 331 330 330 330 330 330 329 328 328 327 327 326 326 324 317 311 315 324 322 321 320 320 320 319 318 318 317 318 318 317 317 316 316 316 316 315 315 316 317 316 317 317 316 314 309 309 310 308 309 308 308 308 309 310 310 310 311 312 312 313 312 312 312 311 312 313 313 313 313 313 314 314
327 327 329 329 331 332 331 331 331 333 333 332 332 331 330 330 329 329 329 328 328 327 326 324 321 315 307 304 304 308 320 321 320 320 320 318 319 319 317 318 318 318 317 317 316 316 315 315 315 315 316 316 317 317 317 316 315 312 309 308 307 307 309 308 309 309 309 309 310 310 310 311 312 312 312 311 312 312 313 313 313 312 313 313 313
326 325 326 329 328 329 330 331 332 332 331 330 329 332 331 328 327 328 327 327 326 326 323 321 319 318 314 308 311 311 320 321 323 319 318 317 317 317 316 315 315 315 316 315 314 315 314 315 315 314 315 317 316 316 316 317 317 314 311 309 306 306 307 308 309 309 309 309 309 309 309 309 310 310 310 311 311 311 311 311 311 311 311 312 313
323 323 323 323 324 324 325 326 327 327 328 329 329 328 328 326 326 326 325 323 323 324 322 322 322 322 321 317 316 319 320 320 319 319 319 318 316 316 314 316 314 314 314 313 313 313 314 314 316 316 314 314 314 314 315 316 315 314 312 310 308 309 308 309 310 310 309 309 309 309 308 308 309 308 309 310 308 309 310 310 310 309 309 310 310
320 320 320 320 320 320 320 321 322 322 323 322 320 321 323 321 320 320 320 320 322 321 321 322 322 320 320 320 321 321 321 321 322 322 321 322 321 321 319 319 318 318 319 318 318 318 317 315 314 314 314 313 310 309 310 312 313 314 312 310 306 309 310 311 311 310 308 310 311 309 308 308 307 307 308 307 309 308 309 308 308 312 307 306 306
318 318 318 318 317 317 316 316 318 316 316 315 315 314 315 315 316 316 316 316 316 315 315 316 316 316 315 315 316 316 317 319 319 320 320 321 321 321 321 321 319 316 314 312 312 311 311 312 312 312 313 313 314 313 312 311 310 309 309 308 308 309 310 308 307 308 307 308 309 308 308 308 307 308 316 308 305 308 307 307 307 307 306 305 305
315 316 316 316 316 316 316 316 315 314 314 314 314 313 313 313 313 314 314 313 312 312 311 311 310 309 309 310 310 312 314 314 315 315 314 313 312 312 313 313 311 309 308 307 307 306 306 305 305 305 306 307 307 307 305 305 305 305 306 304 303 303 305 307 308 309 309 308 309 308 308 307 307 306 307 307 306 306 307 306 307 307 306 306 305
312 312 312 313 313 312 312 313 313 314 312 312 311 311 310 310 309 309 309 309 308 308 307 307 306 306 307 307 308 308 309 309 311 311 309 307 306 306 306 306 305 305 304 303 303 303 303 302 302 302 302 303 303 303 302 301 300 299 298 298 297 295 294 295 304 308 306 306 308 308 308 308 306 305 306 305 304 305 305 304 305 306 306 306 305
311 310 310 309 308 308 308 308 309 308 308 308 308 307 308 307 307 306 306 305 305 305 304 304 304 305 305 305 306 306 307 307 306 307 307 305 304 303 303 302 302 302 301 300 300 300 299 299 300 299 299 299 300 300 300 300 298 297 296 295 294 293 290 292 296 297 296 305 307 307 307 306 306 306 306 305 304 303 304 304 304 305 304 305 305
308 309 308 308 307 307 307 307 306 305 306 306 305 304 305 304 304 304 303 303 302 302 302 303 303 303 303 303 304 304 304 303 304 304 304 306 306 304 302 301 300 299 299 298 298 298 298 298 297 297 297 297 297 297 298 298 297 296 294 293 292 290 290 291 293 294 295 299 304 306 306 306 305 304 303 303 304 304 304 304 304 304 303 303 303
307 306 306 306 305 305 305 304 304 304 303 303 302 302 302 301 301 301 301 301 300 300 301 300 300 301 301 301 302 301 301 301 301 301 302 302 303 304 303 301 300 298 298 297 297 297 296 296 297 296 296 296 296 296 296 297 296 295 293 292 290 290 290 290 292 290 292 294 302 306 306 306 306 305 304 303 302 303 307 307 304 303 303 303 304
Wind_Speed
16 15 14 14 14 14 14 13 14 12 11 12 12 11 10 9 9 9 6 8 8 8 9 9 9 9 9 9 10 9 9 9 8 8 8 9 8 8 7 7 9 8 7 7 6 6 8 8 8 8 5 6 7 6 5 5 4 5 4 5 5 4 5 6 7 10 5 4 4 4 3 3 4 7 8 8 7 7 9 9 9 8 9 9 9
16 15 13 13 15 14 14 13 13 12 13 12 13 11 10 10 9 7 8 8 8 10 10 9 8 9 9 10 10 10 10 10 9 9 9 9 9 7 8 8 9 9 7 8 8 7 7 8 9 8 6 8 7 7 7 6 5 5 5 6 6 6 5 6 8 6 12 1 4 3 4 3 6 3 9 9 8 6 8 9 8 9 9 9 8
15 14 14 14 15 14 14 13 13 14 14 13 13 12 11 10 8 9 9 8 8 9 10 10 9 9 10 10 10 10 10 10 9 10 10 11 10 9 9 9 10 10 10 11 10 8 8 9 10 8 5 7 8 9 6 6 5 6 7 5 6 6 6 7 6 8 9 9 4 5 5 4 7 6 6 7 7 7 8 9 9 8 8 9 9
15 14 14 15 15 14 14 13 14 14 14 13 14 13 11 10 9 10 10 8 9 9 9 9 9 9 10 10 10 10 10 10 10 10 11 11 10 10 10 10 10 10 11 11 9 9 10 9 10 9 8 8 9 8 7 6 6 7 6 6 6 7 6 6 8 8 7 8 5 6 4 5 6 5 4 4 6 6 7 8 6 8 8 8 10
15 15 15 16 15 14 14 13 14 14 14 13 14 13 13 11 10 11 10 10 10 9 8 8 9 10 11 12 12 12 11 11 11 11 10 10 10 10 10 10 11 11 11 10 9 10 10 11 12 9 8 10 9 9 8 8 8 7 7 6 7 6 5 6 8 7 7 9 8 3 3 4 4 3 3 5 5 5 5 7 8 9 9 9 8
16 16 16 16 15 16 15 14 15 16 15 14 15 14 13 12 12 11 11 12 11 11 10 9 10 12 12 12 12 12 10 10 11 12 11 10 10 10 10 11 11 11 11 10 10 9 10 11 11 9 9 11 12 10 9 10 8 8 9 8 7 6 7 6 6 7 7 9 8 8 2 5 4 5 4 5 6 6 6 7 6 7 7 8 10
16 16 16 16 15 16 16 15 15 14 14 14 13 13 13 13 13 13 12 12 12 12 11 12 11 12 13 12 12 12 11 10 10 10 10 10 11 11 11 11 11 11 11 11 10 10 10 11 10 10 11 12 12 12 11 9 8 10 10 10 8 8 9 8 7 7 8 9 8 8 8 5 5 8 4 5 6 7 8 7 9 7 7 10 10
15 16 16 16 15 16 15 14 14 14 13 13 12 13 13 13 13 12 11 13 13 13 13 13 12 11 12 11 12 10 9 10 10 11 11 11 11 12 12 12 11 11 11 10 10 10 11 11 11 11 12 12 12 12 10 10 8 9 8 7 8 8 10 8 6 7 8 8 9 11 8 8 4 6 1 2 4 7 8 8 11 10 8 8 10
16 16 15 15 15 14 14 13 13 13 13 12 13 13 13 12 12 12 12 12 11 13 12 12 12 12 12 12 12 10 10 11 10 11 12 12 12 12 12 12 12 11 11 11 10 10 10 11 11 11 13 15 17 14 12 11 8 9 9 8 9 9 9 8 7 7 8 9 10 9 9 9 9 8 8 8 10 14 4 7 10 10 6 6 9
16 15 15 15 14 14 13 12 12 13 13 14 14 13 12 12 12 13 13 13 12 12 12 12 12 13 13 13 11 10 10 10 13 18 16 12 12 11 10 11 12 11 11 10 10 10 12 11 12 16 17 18 17 17 17 16 16 13 11 9 10 10 10 9 8 8 8 10 11 11 11 12 12 11 11 11 9 6 6 6 9 10 3 8 9
16 16 16 14 13 13 12 12 12 13 14 13 13 13 13 12 12 12 13 12 13 12 12 13 13 13 14 13 13 11 11 11 17 16 18 19 14 11 12 11 10 10 10 11 11 11 11 12 12 14 15 15 15 18 18 18 18 18 18 16 13 12 11 10 9 9 9 11 11 10 11 13 13 11 11 11 7 10 10 7 8 5 7 8 13
15 14 14 13 13 13 13 13 13 14 13 14 14 13 13 13 13 13 13 13 12 11 13 14 13 13 12 12 13 13 12 15 17 17 18 19 17 13 11 10 9 10 10 12 11 11 11 11 10 10 11 13 13 13 15 18 19 19 20 19 18 18 17 14 11 9 10 12 12 12 11 12 13 10 10 9 11 7 7 6 7 9 10 10 11
13 13 13 13 14 14 13 14 14 14 14 14 13 13 13 14 14 13 14 13 11 13 14 13 13 13 13 13 14 13 12 16 16 17 17 18 19 16 11 10 10 11 11 12 12 12 11 11 11 10 11 16 14 12 11 12 15 19 19 18 18 19 20 20 18 15 11 12 13 14 12 11 12 12 10 9 4 6 6 8 9 9 11 11 12
14 14 14 14 14 14 14 14 14 14 14 14 13 14 14 15 15 14 12 12 14 14 13 14 13 13 14 14 13 12 13 15 17 18 18 18 18 16 13 13 11 11 12 12 11 12 13 12 11 12 11 10 10 12 11 12 11 10 11 11 13 17 20 22 20 20 17 15 13 15 15 9 14 13 10 6 7 11 9 12 10 11 12 14 16
14 14 14 14 14 14 14 14 14 14 14 14 14 14 15 14 14 13 13 14 14 14 14 14 14 14 14 13 13 13 13 16 16 18 18 19 18 15 12 12 12 12 12 12 13 13 12 12 12 13 12 11 11 12 11 12 11 11 12 12 12 14 14 15 14 13 14 14 15 17 18 13 13 14 11 8 12 12 12 14 14 13 11 9 10
14 13 13 14 14 14 14 14 15 14 14 14 14 15 14 14 15 13 13 13 12 12 12 13 14 14 14 13 13 15 14 16 17 18 19 18 17 11 11 12 13 13 13 12 12 12 12 12 12 13 13 12 14 17 15 12 11 13 14 13 12 12 14 14 16 16 15 15 15 17 17 17 16 15 14 12 11 10 10 10 8 7 5 10 14
14 14 14 14 14 14 14 15 15 15 14 14 15 15 14 14 14 12 13 13 13 14 14 13 13 13 14 13 14 15 13 14 17 18 18 18 13 10 11 11 12 13 14 13 13 12 12 12 12 12 12 13 15 16 16 15 13 14 14 14 13 13 15 8 14 19 20 23 25 25 25 24 23 23 23 23 17 12 7 8 14 8 9 13 16
13 13 14 14 14 14 15 15 15 15 14 15 16 15 15 13 14 12 14 14 14 14 13 12 12 13 14 14 15 14 13 13 17 18 19 18 17 12 11 11 13 13 13 13 12 12 13 18 16 13 13 13 15 16 17 14 13 14 14 14 15 15 13 7 7 10 20 25 25 26 26 25 24 26 26 26 24 14 11 16 16 8 14 15 15
12 13 14 14 15 15 15 15 15 15 15 15 15 15 15 15 15 13 13 13 13 12 11 12 12 12 12 13 16 16 13 12 17 18 19 19 17 11 11 11 12 12 12 13 11 11 12 13 17 17 15 15 17 16 17 15 13 14 14 14 15 16 12 9 12 10 5 7 12 14 15 19 18 18 20 26 24 18 16 18 16 12 15 15 10
13 12 13 14 14 15 13 15 15 15 15 15 14 15 14 12 12 12 12 12 11 11 11 12 13 12 11 12 12 13 13 12 12 19 18 19 21 13 10 11 12 13 12 12 12 11 12 12 13 16 19 20 19 18 17 18 16 14 12 13 14 16 13 11 7 1 3 11 14 10 12 13 13 13 15 15 16 16 18 18 17 15 15 14 10
6 8 10 12 13 14 13 14 15 15 15 15 15 14 12 12 12 12 12 11 11 11 12 11 12 12 11 11 11 12 11 12 12 18 18 20 22 19 11 13 13 12 11 12 12 12 11 11 10 13 18 19 20 20 19 18 18 15 14 13 14 15 11 5 9 13 7 15 12 8 9 11 12 10 10 11 12 12 13 16 16 15 15 14 13
4 5 7 9 11 12 13 13 14 13 13 12 11 12 11 12 11 12 11 10 12 12 11 10 10 10 10 10 10 11 11 15 10 15 19 20 21 24 14 13 13 12 12 11 11 10 11 10 10 13 18 19 19 18 16 13 14 10 13 17 19 16 10 4 5 5 9 14 11 10 12 13 12 9 10 10 11 12 12 12 13 15 15 16 17
4 6 9 10 10 11 12 13 12 11 11 12 13 13 11 11 11 11 11 10 11 12 12 10 10 10 9 8 8 9 9 10 16 12 17 20 22 22 23 17 16 14 12 12 11 11 10 10 11 14 12 12 11 11 11 11 8 11 17 15 13 11 7 2 4 9 9 13 11 11 13 12 12 12 11 11 12 13 13 12 13 13 15 16 19
2 4 5 8 10 12 12 13 12 12 13 12 12 11 10 11 10 10 10 10 10 11 9 9 9 9 9 8 7 7 8 8 12 16 15 21 21 23 23 23 19 13 13 12 10 10 10 7 2 5 4 4 4 5 6 5 7 9 8 11 11 7 3 4 5 7 11 14 11 12 13 14 12 12 12 11 12 13 14 12 12 13 15 15 18
1 3 4 5 6 7 8 10 12 12 11 12 11 11 10 9 9 9 9 9 9 10 9 9 10 9 9 9 8 7 7 8 7 12 18 19 22 22 22 22 22 19 13 11 9 3 5 7 6 5 4 4 4 4 2 2 6 8 9 9 6 3 3 7 9 8 9 10 10 11 11 12 12 12 11 10 12 13 12 12 12 12 13 14 15
6 3 2 4 5 4 6 8 9 11 11 11 12 12 12 11 11 9 9 10 10 9 9 9 9 9 9 9 8 7 7 6 7 6 9 12 13 17 19 19 20 19 14 8 7 5 4 5 2 2 1 2 3 3 4 3 4 5 7 5 2 3 4 6 7 8 9 9 9 10 11 9 9 10 9 9 10 14 13 12 11 12 11 12 12
6 6 4 3 3 4 6 7 6 7 8 9 9 9 9 9 9 9 9 9 8 8 8 8 8 8 8 8 7 6 7 7 6 4 5 6 7 9 9 10 11 7 7 9 10 9 5 2 2 3 4 5 4 5 4 3 1 1 0 0 1 1 3 5 8 9 9 8 8 9 9 10 10 11 11 11 12 13 11 11 12 14 11 12 13
5 5 6 3 2 4 5 7 7 6 6 7 8 8 7 8 9 10 10 10 9 9 9 8 9 9 9 8 7 7 7 7 6 6 6 7 7 7 7 7 7 8 8 7 5 3 2 2 1 1 2 3 4 4 4 4 4 5 5 5 5 5 4 3 1 4 6 7 8 8 9 10 11 12 11 11 13 14 13 12 12 14 12 11 14
5 4 4 3 3 2 5 5 6 6 5 5 6 4 0 3 6 6 2 3 9 10 9 8 9 8 8 8 8 8 7 6 8 8 8 10 10 8 7 8 7 7 6 6 4 3 4 4 4 4 4 4 4 4 4 4 4 4 3 4 4 3 3 2 1 2 4 5 7 9 10 10 11 12 12 12 13 13 13 13 13 13 14 12 16
5 6 5 3 2 2 4 5 5 6 7 7 7 5 8 8 5 1 2 5 5 2 3 8 7 8 7 4 3 8 9 8 8 11 9 8 7 6 5 6 7 7 9 11 7 5 4 5 4 4 4 4 4 4 4 4 4 5 4 3 3 3 3 2 1 1 3 5 6 7 7 8 10 9 10 9 13 13 13 12 15 13 14 14 14
5 5 5 6 3 3 4 5 5 6 6 6 7 7 5 8 13 12 6 5 4 4 2 4 5 6 9 7 2 9 5 12 13 12 12 11 10 11 12 13 13 13 12 10 6 5 5 6 5 4 4 5 5 4 4 4 4 4 5 4 3 5 5 4 4 4 4 4 4 4 5 7 8 8 10 10 12 11 12 11 11 12 12 12 12
4 4 4 4 3 1 3 4 5 6 5 5 6 7 6 6 6 13 14 11 11 10 9 7 3 5 10 12 10 5 7 8 12 12 12 13 13 13 13 14 13 12 7 9 8 6 5 6 5 5 4 5 4 3 3 3 2 3 5 6 6 4 4 5 6 5 6 6 6 6 6 6 7 8 9 9 10 10 11 13 11 11 10 10 11
3 3 3 4 1 1 3 4 5 6 7 7 6 6 7 7 7 5 9 13 15 15 15 14 13 11 10 8 8 10 12 11 11 12 12 13 13 13 13 11 10 8 9 7 8 7 5 6 6 4 5 5 3 3 2 3 4 4 4 4 5 5 4 4 5 4 4 5 5 6 7 7 8 9 9 9 9 12 12 12 12 11 11 11 11
1 1 2 2 0 2 3 5 5 6 6 6 7 6 6 6 7 8 8 6 8 12 15 16 14 15 15 14 15 15 14 15 15 14 14 14 15 14 14 10 10 6 7 8 8 7 6 6 5 4 4 4 3 3 3 4 4 3 2 2 3 3 4 4 4 5 4 5 5 6 7 7 7 9 10 11 10 10 10 11 11 11 10 10 8
2 3 6 3 1 3 3 4 5 5 5 6 6 6 6 5 6 7 7 8 8 7 5 7 12 13 11 11 13 15 15 14 14 13 14 14 15 16 14 11 9 7 7 6 7 6 6 5 5 3 4 4 4 4 4 3 3 2 2 2 3 4 4 5 5 5 6 6 6 7 7 8 8 8 9 10 11 12 11 12 11 9 9 6 4
2 2 2 3 0 3 4 3 4 5 6 5 5 5 5 5 6 6 7 8 9 9 7 6 6 9 16 15 14 14 15 14 14 12 10 8 4 2 8 7 8 7 7 5 6 5 5 5 5 3 3 4 4 2 1 0 0 1 1 0 2 3 3 4 4 5 5 5 6 7 7 7 7 8 8 8 9 9 9 10 9 9 6 4 5
2 1 2 1 1 3 4 5 3 3 3 4 5 6 6 6 6 7 7 8 8 7 9 8 8 8 9 7 9 12 12 13 11 10 10 8 7 6 7 7 8 7 7 6 5 5 5 4 4 3 3 3 2 2 2 0 0 0 0 1 1 2 3 3 4 4 5 5 6 6 6 7 7 7 7 8 8 9 9 9 9 9 8 7 7
1 1 0 1 2 4 5 5 6 6 6 5 5 6 6 7 7 7 8 8 8 10 9 8 8 10 11 7 5 5 8 10 13 11 8 9 8 7 7 6 6 7 7 5 5 6 5 3 3 4 3 2 3 2 2 1 0 2 2 2 2 2 3 4 4 4 4 4 5 6 6 6 6 6 7 6 7 7 8 8 8 8 7 8 7
1 2 4 3 3 5 5 6 6 7 7 7 7 9 9 9 9 9 9 9 8 7 6 6 6 8 8 7 7 6 8 7 7 6 6 6 6 6 6 6 6 6 5 5 5 5 4 4 3 3 3 3 2 2 1 1 2 3 2 2 3 3 5 5 5 5 5 5 5 5 5 6 6 6 6 6 7 8 7 8 8 7 7 7 8
1 2 3 6 5 4 5 6 6 6 7 8 7 7 7 7 6 7 7 9 9 8 7 7 7 6 5 6 6 5 8 7 7 6 7 6 6 6 5 5 5 6 6 5 4 4 4 3 2 2 2 3 2 2 1 2 2 1 1 4 4 5 4 4 4 5 5 4 4 4 5 6 6 6 6 6 6 6 7 7 7 8 8 8 8
2 1 3 5 6 5 5 6 7 7 5 6 8 8 8 9 10 9 8 6 6 7 6 6 6 5 4 6 6 7 8 7 6 6 6 6 6 5 5 5 5 5 4 4 3 3 3 2 1 2 2 2 1 2 2 2 1 1 2 2 3 4 3 3 4 4 3 3 3 3 4 4 5 6 7 6 6 6 6 6 7 7 7 8 8
4 4 5 5 6 5 5 5 6 8 7 7 6 6 7 9 8 9 8 8 7 6 7 6 6 5 5 8 10 11 9 6 6 6 5 5 5 5 5 5 5 5 5 4 4 3 2 2 2 1 1 2 2 2 2 1 1 2 2 3 3 3 3 3 2 2 3 3 3 3 3 3 3 3 3 4 5 6 6 6 6 6 5 5 5
4 5 5 5 6 5 5 5 6 6 6 6 7 7 6 7 8 8 7 7 8 7 7 7 6 5 5 4 9 10 7 6 6 6 5 5 5 4 4 4 3 3 2 2 2 3 4 3 2 1 2 2 2 2 2 1 1 1 2 2 2 2 2 1 1 2 2 3 3 4 3 3 3 3 3 4 4 5 5 6 6 5 5 5 4
6 6 6 6 7 7 6 6 7 7 7 9 9 8 8 8 8 9 9 8 8 8 7 7 6 6 6 6 8 8 7 7 6 6 6 5 5 5 5 4 4 5 4 3 3 1 2 3 2 2 2 2 1 1 1 1 1 2 1 1 0 0 0 0 1 1 1 2 3 3 4 3 3 3 3 3 3 4 4 4 4 4 4 4 5
5 6 7 8 7 8 7 7 8 8 9 9 9 9 9 9 9 9 9 9 9 9 8 8 8 7 7 7 8 8 8 7 8 8 7 7 6 6 5 5 6 6 6 6 6 5 5 5 4 5 5 5 3 2 2 1 0 1 2 1 1 1 1 1 2 2 2 1 0 2 3 4 3 3 3 3 1 2 2 2 1 2 3 3 4
7 5 6 7 9 8 9 9 10 11 12 9 8 7 7 10 10 10 9 9 10 9 8 7 8 8 8 8 8 8 8 8 7 7 7 7 7 8 7 7 7 7 7 7 7 8 7 7 7 6 6 6 7 7 7 7 6 5 4 3 4 4 4 4 4 2 3 2 1 1 2 3 3 2 3 2 2 1 1 1 1 1 2 2 2
9 8 8 7 7 7 8 6 8 10 10 11 11 11 11 10 10 11 11 11 10 9 9 8 8 8 8 8 8 8 7 8 8 8 8 8 7 7 6 7 7 7 7 7 7 8 7 7 7 6 6 6 7 8 8 7 7 7 7 7 7 7 6 6 5 2 3 3 2 2 2 2 3 3 3 2 1 1 0 1 1 1 0 1 1
10 9 9 9 10 9 9 8 9 10 11 12 11 11 11 10 10 10 10 10 10 9 9 9 9 8 8 9 7 6 7 7 7 8 8 8 8 7 7 7 7 7 7 8 9 8 8 7 7 7 7 8 8 7 7 7 7 7 7 6 6 7 9 9 5 4 3 3 3 3 2 3 3 2 2 1 1 1 2 3 1 1 0 0 0
10 9 9 10 11 11 10 10 10 9 11 10 11 12 11 11 11 10 10 9 9 9 8 9 9 8 9 8 7 7 7 8 8 8 8 8 8 7 8 8 9 8 8 8 8 8 8 8 8 8 8 7 7 7 8 8 8 8 8 7 10 14 12 10 6 6 7 5 3 2 1 2 3 2 0 0 1 1 1 1 0 0 0 0 1
11 10 9 9 11 11 11 10 10 10 11 11 11 11 10 11 11 10 10 10 10 10 9 9 9 8 8 8 9 9 9 9 9 8 7 7 7 7 8 8 9 9 8 8 8 8 8 8 9 9 9 8 8 8 7 7 7 8 8 9 14 15 14 13 10 10 8 4 4 2 3 3 2 0 0 0 0 0 0 1 2 2 1 0 1
11 10 9 10 10 11 12 11 11 10 10 11 11 11 11 11 10 10 10 10 10 10 9 9 9 9 9 9 9 9 9 9 8 8 8 8 8 8 9 9 9 9 9 9 8 8 9 8 9 9 9 9 8 7 7 7 7 8 10 14 15 15 15 13 10 11 12 7 3 1 1 3 3 1 0 0 1 0 0 1 0 1 1 1 1
Wind_Direction
192 195 190 194 192 193 194 194 197 196 195 197 202 206 205 204 204 207 190 199 194 198 200 199 197 200 200 200 201 201 203 204 203 204 206 212 213 212 208 204 213 221 216 219 216 210 214 221 227 228 221 224 231 232 232 227 205 205 199 194 213 199 182 196 219 258 281 230 239 245 255 208 238 209 225 228 229 223 223 228 226 224 225 227 229
193 193 191 194 195 194 195 194 195 194 196 199 204 204 203 204 203 193 199 203 193 203 205 202 200 199 201 206 204 204 204 204 201 200 207 211 215 211 210 207 215 221 213 223 217 216 213 220 231 229 214 223 232 230 226 225 214 217 214 197 209 211 201 196 229 232 263 262 254 247 265 189 236 197 210 223 232 216 222 227 225 221 226 227 228
191 189 191 193 197 196 193 194 193 195 198 200 204 203 203 204 197 199 205 202 200 204 206 205 203 202 207 208 207 207 206 206 203 202 208 209 212 213 211 210 214 217 217 221 218 213 216 221 230 227 214 223 232 236 228 227 217 219 227 203 214 216 202 207 213 241 249 261 209 237 225 210 209 230 221 228 231 215 223 228 226 225 226 226 227
189 189 192 195 196 195 195 195 194 197 200 202 203 203 201 202 197 203 206 203 204 208 206 206 204 205 210 213 211 211 207 207 207 207 209 208 212 214 213 214 217 219 220 221 218 211 218 222 229 223 217 224 232 234 233 225 224 225 231 225 215 223 210 200 219 232 243 255 255 216 231 215 244 244 237 235 234 231 224 237 235 235 232 228 229
187 189 191 194 194 195 196 195 197 199 201 202 204 202 203 201 199 203 203 206 208 206 208 204 206 208 212 214 214 213 211 206 209 211 211 210 211 213 215 216 218 221 222 222 216 214 219 223 229 220 216 225 235 234 230 227 228 223 231 231 224 227 213 207 222 223 243 246 261 246 236 241 249 244 207 219 244 244 248 236 231 233 234 233 232
190 189 192 193 193 195 197 196 198 199 201 203 204 203 203 203 202 204 203 206 208 209 207 205 207 212 216 217 216 217 212 208 211 213 211 210 212 216 218 219 221 221 222 222 219 215 219 225 229 221 219 223 232 231 226 228 227 228 232 231 226 219 222 223 216 226 231 249 255 273 230 238 272 253 213 202 224 245 252 249 248 238 233 241 235
190 191 192 194 194 196 196 197 198 200 201 203 203 203 204 205 204 205 203 207 207 210 210 209 212 215 219 219 219 218 213 212 215 215 214 212 213 215 219 222 224 224 225 222 220 218 221 225 226 220 222 226 232 232 228 226 223 228 228 230 227 219 226 223 214 223 232 248 258 250 265 244 214 259 239 204 222 224 236 249 254 234 225 231 244
189 192 192 195 197 197 197 196 198 199 200 202 203 205 207 207 207 207 205 208 211 211 211 212 216 217 221 220 222 218 214 215 217 217 215 214 215 218 219 220 223 226 229 228 223 222 223 226 226 221 223 227 229 234 227 229 224 233 231 227 227 226 232 228 215 220 232 241 246 259 245 256 240 239 250 166 237 257 229 225 248 247 229 231 233
189 191 193 196 198 197 196 196 197 197 198 199 204 206 207 208 208 209 209 211 212 214 213 214 216 221 225 223 223 216 215 217 216 215 215 217 217 220 220 222 223 225 228 229 226 225 227 229 229 228 225 227 228 231 228 222 220 228 231 217 225 227 234 231 220 218 233 238 251 248 254 250 247 246 241 223 223 240 205 192 240 251 242 244 247
188 191 194 197 197 195 194 194 195 195 196 200 203 204 206 206 208 210 212 212 213 213 214 215 216 219 223 225 224 219 219 221 220 215 212 214 216 220 221 223 223 225 227 228 229 225 229 230 233 231 228 228 228 230 231 228 223 223 226 212 223 227 232 233 226 224 231 239 242 246 249 249 247 239 243 240 239 253 244 214 229 250 247 256 267
189 191 196 195 192 191 191 195 193 196 199 201 201 201 204 205 209 211 213 213 214 213 213 216 218 219 221 224 223 221 223 225 221 213 214 214 213 217 219 223 222 225 226 227 229 228 228 229 235 236 234 233 233 231 231 230 229 230 232 226 217 217 229 229 232 224 230 238 243 241 243 252 250 246 244 249 236 229 236 229 237 250 235 247 261
189 191 193 190 190 190 193 192 194 198 198 202 201 201 201 204 207 210 211 212 213 213 216 217 218 220 223 224 225 224 225 226 220 214 213 213 213 218 220 222 221 222 225 227 230 231 232 232 232 234 234 232 231 232 232 232 232 232 233 233 234 231 225 222 226 229 228 238 243 239 242 246 254 246 251 245 245 243 241 235 227 229 237 239 246
184 189 191 191 191 191 192 192 196 198 199 201 201 199 201 204 207 208 211 211 211 214 217 216 219 220 222 224 227 225 228 225 218 215 213 212 213 216 225 222 222 224 224 226 230 231 233 234 236 234 236 233 234 236 236 235 230 233 237 239 241 240 241 238 231 231 232 237 242 250 237 246 254 250 238 247 235 240 227 230 232 232 233 240 246
185 190 192 192 192 192 192 193 196 199 198 199 199 200 202 206 206 207 208 207 212 217 215 217 219 220 221 224 228 229 228 226 213 212 212 211 210 207 225 226 228 228 226 226 228 230 230 231 235 239 237 234 232 232 235 237 241 234 229 229 235 241 241 241 238 240 244 244 245 250 250 224 245 250 242 219 219 233 226 237 229 234 233 235 241
188 191 193 193 192 193 192 194 198 199 199 198 199 202 204 207 206 206 206 209 212 214 214 216 218 219 221 223 228 230 231 222 211 209 211 209 207 201 221 227 233 234 232 229 229 230 230 229 233 239 239 233 231 229 230 232 235 241 240 233 229 235 237 237 230 230 236 240 245 249 256 247 245 251 249 222 225 232 226 234 233 233 239 258 269
190 192 193 193 193 193 192 194 198 199 199 198 199 203 205 206 206 205 207 212 215 215 217 217 218 218 219 220 225 232 233 217 208 208 208 208 197 200 216 225 231 236 237 234 233 233 231 229 232 237 239 237 233 225 225 228 233 240 242 243 243 240 240 231 227 227 232 240 241 245 249 249 247 250 247 238 234 234 238 244 251 243 233 248 253
192 192 194 193 194 194 194 195 198 200 198 198 201 203 204 207 209 204 207 211 213 214 217 216 218 218 218 217 222 231 234 216 205 206 206 200 185 207 212 222 230 235 239 238 237 236 234 230 230 236 238 238 234 224 222 218 234 238 243 246 244 246 250 232 210 219 227 237 240 242 246 249 249 251 252 247 241 233 226 245 244 214 224 245 250
192 191 194 194 196 196 196 196 199 200 198 199 202 205 205 206 208 202 205 208 212 215 215 219 218 218 217 218 219 226 230 215 201 205 202 191 189 200 210 216 229 232 239 241 240 241 239 234 231 234 238 241 232 223 219 209 229 236 241 248 250 249 252 233 229 218 222 231 236 240 244 247 248 249 251 250 245 232 228 240 245 208 233 237 249
192 192 193 195 199 198 196 198 200 200 199 202 203 204 204 205 207 202 206 209 214 212 213 218 221 221 220 221 221 223 229 219 201 203 198 190 191 204 205 216 227 231 234 241 240 241 244 240 233 233 237 240 234 227 219 208 227 233 235 242 250 253 250 231 231 232 236 263 255 249 256 253 249 248 251 249 247 237 232 241 251 235 241 243 245
199 195 193 195 198 199 198 198 201 200 202 205 204 206 205 205 206 203 206 208 211 211 212 215 219 222 218 220 222 221 224 224 206 202 195 191 190 197 207 213 223 229 231 234 242 240 241 244 240 233 234 240 240 234 226 212 223 237 235 240 248 256 251 243 245 30 353 260 255 246 248 254 250 243 247 253 252 237 234 236 239 240 243 249 219
209 205 196 195 197 200 200 199 201 203 203 204 204 205 202 204 204 202 205 206 209 212 213 214 219 222 219 218 222 221 219 220 212 197 197 191 193 195 209 214 219 223 227 231 234 241 242 241 245 237 232 233 235 236 233 226 224 237 242 243 245 255 277 277 81 93 246 261 271 276 268 260 253 249 249 250 248 247 236 232 234 233 233 237 229
217 186 194 196 198 200 201 203 203 205 205 201 201 207 206 204 204 203 203 204 207 212 213 215 217 221 220 219 221 222 217 210 212 199 197 194 193 199 207 217 212 217 226 232 233 239 241 239 242 238 235 235 235 238 243 245 243 247 256 256 262 276 289 331 112 108 256 268 268 267 264 264 268 266 262 257 255 254 245 238 230 227 224 225 224
229 208 193 192 197 199 200 199 200 203 207 203 199 203 201 201 203 200 200 203 206 210 214 212 215 219 221 219 219 218 216 210 206 198 199 197 199 202 210 216 211 214 224 231 228 236 238 240 242 245 252 261 265 262 253 244 237 235 247 268 287 299 302 273 154 144 245 262 261 268 273 277 281 271 261 261 258 257 254 244 239 229 223 224 223
206 209 214 211 200 198 197 197 198 200 203 203 203 203 198 200 200 199 198 200 202 209 213 211 212 217 220 221 215 215 210 209 206 199 194 201 204 205 211 219 218 216 221 232 231 234 241 248 305 32 20 347 314 297 273 239 235 254 254 252 257 262 248 125 164 148 232 259 261 262 264 265 267 268 265 260 261 264 261 258 250 238 234 229 227
80 181 217 227 222 216 203 196 195 196 198 196 199 203 203 193 198 200 194 200 202 206 210 205 210 213 216 219 216 212 212 210 210 202 199 200 206 209 213 217 225 225 230 234 238 253 68 68 45 36 25 25 32 26 23 235 234 244 253 258 257 216 175 161 182 190 223 244 250 254 259 258 258 263 272 278 278 277 275 273 264 258 251 247 240
358 342 224 212 220 216 210 210 202 196 192 192 197 198 198 195 198 196 194 200 201 203 205 203 209 210 213 216 211 210 209 208 213 197 200 209 213 219 219 222 227 229 237 284 313 330 335 355 356 332 345 2 337 319 311 303 286 266 258 249 227 207 158 163 181 197 227 236 241 252 261 276 278 279 282 282 281 275 277 276 276 269 259 257 256
348 343 323 267 226 201 208 208 204 201 194 193 196 196 195 195 199 196 195 197 198 202 200 200 205 206 211 209 207 204 208 208 196 172 175 183 203 210 214 235 239 245 244 243 257 265 277 296 326 290 268 268 252 250 257 289 306 315 4 201 207 203 180 167 186 204 227 249 263 268 277 277 285 288 282 283 278 275 272 272 274 272 271 265 261
355 329 316 301 222 208 210 203 188 189 193 190 191 192 192 195 197 195 192 192 191 198 195 198 201 199 206 200 200 205 213 203 183 181 182 189 196 195 200 208 206 204 218 227 218 241 253 259 308 16 68 64 59 59 52 33 34 27 27 33 23 15 14 360 261 229 244 261 273 277 278 281 282 283 288 286 282 283 285 283 278 280 273 273 265
357 336 319 298 266 204 192 189 180 165 117 54 38 26 275 228 204 196 190 188 193 194 198 200 200 201 195 193 191 211 209 204 217 194 186 184 179 176 191 202 197 196 195 149 114 114 112 91 82 63 54 67 58 51 39 27 25 21 32 27 19 25 40 48 31 320 307 307 299 302 302 309 301 301 300 295 291 292 294 293 287 284 286 271 268
4 349 341 314 235 175 174 169 152 142 141 132 114 79 61 75 33 18 145 355 15 357 171 195 196 186 189 182 191 195 208 211 136 131 139 145 155 167 164 155 153 138 134 140 129 117 111 101 85 90 74 68 64 46 32 25 13 6 18 29 24 34 26 22 1 285 263 253 259 270 278 284 286 289 288 284 289 287 283 280 286 286 284 284 283
2 357 354 344 296 184 155 140 133 134 140 143 139 134 124 48 45 45 35 25 25 48 159 258 286 204 171 172 82 30 78 122 134 135 127 123 121 117 118 120 123 129 133 111 73 101 117 104 94 84 83 80 70 51 34 31 21 6 359 9 32 20 8 359 346 319 297 289 271 268 268 274 278 281 283 286 285 282 289 284 276 275 270 275 279
7 345 349 326 319 219 143 139 135 134 131 139 144 146 128 112 58 36 39 44 49 50 47 49 58 186 172 146 132 48 54 94 121 123 121 118 116 115 114 118 123 122 125 102 92 85 96 107 97 85 88 77 66 61 49 50 29 17 1 3 6 3 355 347 335 333 332 329 327 318 312 301 299 294 290 286 286 288 291 296 292 285 276 266 263
17 346 360 336 336 129 125 137 145 147 152 154 158 157 147 146 125 92 37 55 66 59 49 46 55 68 83 96 116 131 134 120 103 102 107 109 107 107 109 110 117 127 106 80 110 106 98 97 98 88 84 91 98 81 60 37 34 29 16 358 343 339 334 326 320 328 330 327 321 328 329 326 320 315 310 307 305 306 302 297 295 286 282 280 274
25 308 343 19 86 155 151 157 158 168 169 169 166 165 162 149 142 131 121 113 68 57 53 48 54 71 66 83 97 104 111 117 114 113 112 112 113 111 104 98 96 81 95 122 110 113 108 104 103 108 107 111 105 85 56 33 25 23 1 343 322 321 326 324 342 347 344 342 343 337 333 331 331 332 329 325 323 319 318 314 311 306 294 289 300
20 7 1 41 168 168 159 170 168 164 164 164 164 157 144 138 137 139 143 129 110 94 88 53 38 54 84 85 93 101 105 106 110 113 112 116 116 118 109 94 84 73 63 71 98 109 119 119 120 119 122 96 80 67 54 22 3 358 348 325 322 333 340 351 352 346 350 347 349 350 345 338 339 337 333 332 334 338 338 334 328 325 320 330 353
6 28 24 355 349 150 145 165 179 178 171 159 136 116 120 127 124 118 107 104 113 116 96 69 81 67 78 77 89 99 101 103 107 108 104 87 65 64 94 102 97 93 97 92 101 105 103 116 115 112 93 80 81 88 64 327 292 296 285 298 357 351 347 352 353 354 354 357 351 343 343 345 343 341 337 335 338 338 339 342 336 329 338 10 40
346 41 20 355 76 119 121 126 130 118 98 109 117 118 112 103 106 108 106 112 108 106 111 130 115 91 77 74 86 86 94 98 90 79 69 70 79 85 103 113 116 111 107 112 112 118 109 89 97 98 96 110 126 150 156 169 240 209 146 51 13 18 7 357 3 1 6 1 353 349 346 341 341 342 342 339 340 344 349 352 353 354 354 14 44
359 343 254 137 121 119 122 118 113 106 103 102 96 102 108 111 114 113 114 112 122 127 131 139 134 132 133 137 145 130 113 111 101 81 70 68 68 85 92 96 102 115 119 118 116 114 108 116 118 122 129 143 149 151 143 179 167 82 60 37 34 28 25 21 14 12 11 7 358 349 341 342 342 341 345 350 349 349 355 1 4 357 356 10 28
3 72 102 112 129 133 129 124 122 123 120 119 126 128 132 137 134 130 125 125 121 111 106 100 101 112 117 127 120 148 122 95 92 99 88 81 75 82 95 99 108 109 111 110 118 112 122 127 145 136 136 131 129 158 166 113 74 74 64 69 37 32 30 21 16 7 9 1 346 342 342 343 343 346 349 358 6 4 6 10 11 9 8 11 17
97 89 91 104 103 105 118 120 120 121 133 133 126 116 107 92 84 95 109 116 119 118 115 113 110 102 111 124 130 132 107 109 108 114 107 98 95 89 101 115 116 116 117 114 110 122 116 131 144 135 130 141 139 113 98 77 63 72 79 67 61 45 27 21 17 10 357 337 336 338 353 352 350 347 357 9 7 10 19 17 12 17 20 25 33
101 86 102 111 113 113 111 117 116 117 121 125 129 127 121 118 117 115 106 96 95 101 100 106 109 106 111 118 108 105 109 115 117 112 115 117 119 116 114 111 113 109 109 116 118 110 108 121 168 171 151 127 121 89 82 67 32 40 60 55 60 55 32 17 10 1 340 336 341 356 359 2 1 6 6 354 357 9 17 27 31 31 28 25 29
98 99 104 103 109 111 120 116 124 127 125 120 99 92 110 118 120 121 118 118 113 114 117 104 79 46 32 80 103 104 102 104 106 107 104 110 111 110 109 109 113 122 127 131 134 129 140 144 168 179 147 102 94 84 79 61 351 24 36 44 54 57 46 14 351 345 349 348 342 349 356 7 10 8 5 5 10 8 14 18 18 22 34 42 40
85 92 87 93 89 96 103 120 120 122 120 116 115 114 110 104 106 104 107 106 109 113 104 95 89 87 68 63 82 82 83 86 86 88 88 87 92 99 108 117 116 117 123 145 155 153 145 145 154 158 111 89 119 132 151 163 134 76 56 46 30 61 47 343 349 353 350 354 345 332 338 353 14 12 7 15 16 29 25 16 11 15 6 6 15
105 91 85 87 88 88 83 93 92 92 97 99 96 95 97 98 96 97 97 93 93 92 92 93 97 96 93 78 73 72 74 72 70 66 67 61 57 54 45 42 41 40 35 36 25 29 103 107 87 37 18 10 34 133 164 177 139 122 121 94 270 288 259 275 321 299 310 333 335 330 326 331 349 9 5 5 10 29 31 36 31 19 9 13 17
72 91 102 95 88 92 88 84 90 92 91 90 88 88 91 87 84 84 88 92 90 86 85 85 85 82 77 71 70 72 70 70 67 65 57 58 56 53 58 61 54 46 38 32 25 27 32 34 35 26 12 2 356 14 41 65 144 149 144 153 158 249 257 241 237 236 203 197 277 324 316 321 330 342 348 340 18 44 41 21 354 24 41 29 53
59 52 74 98 103 102 98 97 95 94 93 81 82 66 72 81 78 81 83 82 81 82 78 76 79 77 76 73 73 71 70 70 66 61 56 52 52 50 50 53 52 47 41 33 29 32 31 30 26 22 16 6 2 4 10 13 14 11 358 349 315 296 290 290 300 303 269 227 201 219 269 294 301 313 337 351 330 354 24 12 74 49 35 23 44
51 63 58 55 53 74 84 92 99 99 96 93 93 88 86 85 87 85 79 77 77 74 75 73 71 70 65 64 67 67 68 67 65 59 54 50 45 40 37 42 49 47 41 37 34 33 30 32 31 29 25 19 20 22 17 14 15 14 17 12 8 351 342 330 310 285 277 278 244 244 272 295 318 329 339 335 333 332 10 346 334 2 103 75 28
64 64 58 67 69 66 55 51 69 79 88 87 87 84 85 83 81 78 77 75 68 68 75 73 68 67 67 61 54 48 50 53 58 61 57 53 47 45 40 41 42 43 42 40 35 33 30 28 28 28 29 27 27 24 22 16 18 12 9 3 2 349 329 323 313 326 313 294 262 253 248 269 281 306 335 359 335 311 336 322 326 327 346 136 132
45 57 67 73 76 70 69 64 65 65 71 69 77 79 76 78 75 73 73 71 71 70 68 72 71 68 67 62 54 47 44 45 47 51 58 57 53 50 50 48 48 41 40 40 36 35 33 28 26 27 28 26 26 23 23 21 14 10 360 353 343 340 340 350 353 344 321 294 289 282 248 227 253 268 334 18 352 345 351 326 257 248 308 240 153
26 32 47 61 68 72 73 71 65 63 70 75 72 74 72 73 71 71 70 72 71 68 66 64 62 57 59 58 54 47 45 45 44 41 39 45 50 52 50 52 50 46 43 41 36 32 33 32 28 25 21 16 17 20 21 24 17 5 1 344 338 339 346 348 349 358 356 329 304 253 239 247 242 136 98 117 342 24 8 336 335 341 353 226 195
48 35 28 42 56 68 72 65 61 59 64 69 71 73 73 71 70 68 68 68 70 66 63 59 58 59 55 52 52 52 51 50 46 43 41 36 35 42 47 48 50 50 48 45 40 38 34 32 31 31 25 15 11 9 14 14 14 2 352 351 354 352 353 352 347 340 340 340 293 261 197 238 237 235 246 88 123 152 174 140 337 329 316 324 324